"Pseudo-MPEC" for P110947

Created 2020 May 26 13:07:14 UT using Find_Orb

Click here for an explanation of pseudo-MPECs

 
 Astrometry: 
     P110947  C2020 05 14BlAstrometryqEVG?cxf1RFCM,redacted;)6P2NQ%KTCZ/je+\6F51
     P110947  C2020 05 14Q87J!56fh\cohG+Yclick4I__$\@@k0,wFv(84RmIhYkKB`mil2#F51
     P110947  C2020 05 145b?9Dhere_4jItAIpIa*UTfor.C3yH0:pS,(Vfqexplanationr+F51

Station data:
(F51) Pan-STARRS 1, Haleakala  (N20.707235 W156.255910)  US/Hawaii.
   Observers N. Primak, A. Schultz, S. Watters, J. Thiel, T. Goggia. Measurer
   PS1 Science Consortium. 1.8-m Ritchey-Chrétien + CCD.

Orbital elements:  P110947
   Perihelion 2020 Aug 11.995500 +/- 271 TT = 23:53:31 (JD 2459073.495500)
Epoch 2020 May 14.0 TT = JDT 2458983.5   Earth MOID: 0.2362   AutoNEOCP
M 338.93964475 +/- 60               (J2000 ecliptic)
n   0.23401564 +/- 0.217            Peri.   36.36486 +/- 90
a   2.60799117 +/- 1.61             Node   258.69973 +/- 53
e   0.5313956 +/- 0.262             Incl.   12.32620 +/- 30
P   4.21                   H 21.2   G  0.15   U 11.7  SR
q 1.22211591 +/- 0.932    Q 3.99386644 +/- 35.1
From 3 observations 2020 May 14 (27.7 min); mean residual 0".18
Residuals in arcseconds: 
200514 F51  .14-  .11-    200514 F51  .28+  .21+    200514 F51  .14-  .11-    

Ephemerides (geocentric):
Date (UTC) HH   RA              Dec         delta   r     elong  mag " sig PA
---- -- -- --  -------------   -----------  ------ ------ -----  --- ---- ---
2020 05 26 13  13 43 01.237   -25 53 11.16  .53852 1.4873 145.2 21.8 512' 115
2020 05 26 14  13 43 00.325   -25 52 14.52  .53840 1.4871 145.1 21.8 526' 116
2020 05 26 15  13 42 59.419   -25 51 17.86  .53829 1.4869 145.1 21.8 541' 117
2020 05 26 16  13 42 58.518   -25 50 21.17  .53817 1.4866 145.0 21.8 556' 117
2020 05 26 17  13 42 57.622   -25 49 24.47  .53806 1.4864 145.0 21.8 571' 118
2020 05 26 18  13 42 56.732   -25 48 27.73  .53795 1.4861 145.0 21.8 586' 119
2020 05 26 19  13 42 55.848   -25 47 30.98  .53783 1.4859 144.9 21.8 601' 120
2020 05 26 20  13 42 54.969   -25 46 34.20  .53772 1.4856 144.9 21.8 617' 121
2020 05 26 21  13 42 54.095   -25 45 37.40  .53761 1.4854 144.8 21.8 632' 122
2020 05 26 22  13 42 53.227   -25 44 40.58  .53750 1.4852 144.8 21.8 648' 123
2020 05 26 23  13 42 52.365   -25 43 43.74  .53739 1.4849 144.8 21.8 664' 124
2020 05 27 00  13 42 51.508   -25 42 46.87  .53727 1.4847 144.7 21.8 681' 125
2020 05 27 01  13 42 50.657   -25 41 49.98  .53716 1.4844 144.7 21.8 697' 126
2020 05 27 02  13 42 49.811   -25 40 53.07  .53705 1.4842 144.6 21.8 714' 127
2020 05 27 03  13 42 48.971   -25 39 56.13  .53694 1.4839 144.6 21.8 730' 128
2020 05 27 04  13 42 48.136   -25 38 59.18  .53683 1.4837 144.6 21.8 747' 130
2020 05 27 05  13 42 47.307   -25 38 02.20  .53672 1.4835 144.5 21.8 763' 131
2020 05 27 06  13 42 46.484   -25 37 05.20  .53661 1.4832 144.5 21.8 779' 132
2020 05 27 07  13 42 45.666   -25 36 08.18  .53650 1.4830 144.4 21.8 795' 133
2020 05 27 08  13 42 44.853   -25 35 11.14  .53639 1.4827 144.4 21.8 810' 134
2020 05 27 09  13 42 44.047   -25 34 14.08  .53628 1.4825 144.4 21.8 824' 135
2020 05 27 10  13 42 43.246   -25 33 16.99  .53617 1.4822 144.3 21.8 838' 136
2020 05 27 11  13 42 42.450   -25 32 19.89  .53606 1.4820 144.3 21.8 850' 137
2020 05 27 12  13 42 41.660   -25 31 22.76  .53595 1.4818 144.2 21.8 862' 138
2020 05 27 13  13 42 40.876   -25 30 25.62  .53584 1.4815 144.2 21.8 874' 139
2020 05 27 14  13 42 40.097   -25 29 28.45  .53574 1.4813 144.2 21.8 884' 140
2020 05 27 15  13 42 39.324   -25 28 31.26  .53563 1.4810 144.1 21.8 894' 140
2020 05 27 16  13 42 38.557   -25 27 34.05  .53552 1.4808 144.1 21.8 903' 141
2020 05 27 17  13 42 37.795   -25 26 36.82  .53541 1.4806 144.0 21.8 911' 142
2020 05 27 18  13 42 37.039   -25 25 39.57  .53531 1.4803 144.0 21.8 919' 142
2020 05 27 19  13 42 36.288   -25 24 42.30  .53520 1.4801 144.0 21.8 926' 143
2020 05 27 20  13 42 35.543   -25 23 45.01  .53509 1.4798 143.9 21.8 932' 143
2020 05 27 21  13 42 34.804   -25 22 47.71  .53498 1.4796 143.9 21.8 938' 144
2020 05 27 22  13 42 34.071   -25 21 50.38  .53488 1.4793 143.8 21.8 944' 144
2020 05 27 23  13 42 33.343   -25 20 53.03  .53477 1.4791 143.8 21.8 949' 145
2020 05 28 00  13 42 32.621   -25 19 55.66  .53467 1.4789 143.8 21.8 954' 145
2020 05 28 01  13 42 31.904   -25 18 58.27  .53456 1.4786 143.7 21.8 958' 145
2020 05 28 02  13 42 31.193   -25 18 00.86  .53445 1.4784 143.7 21.8 962' 146
2020 05 28 03  13 42 30.488   -25 17 03.44  .53435 1.4781 143.6 21.8 966' 146
2020 05 28 04  13 42 29.789   -25 16 05.99  .53424 1.4779 143.6 21.8 970' 146
2020 05 28 05  13 42 29.095   -25 15 08.53  .53414 1.4777 143.6 21.8 973' 147
2020 05 28 06  13 42 28.407   -25 14 11.04  .53403 1.4774 143.5 21.8 976' 147
2020 05 28 07  13 42 27.725   -25 13 13.54  .53393 1.4772 143.5 21.8 979' 147
2020 05 28 08  13 42 27.048   -25 12 16.02  .53383 1.4769 143.4 21.8 982' 147
2020 05 28 09  13 42 26.377   -25 11 18.48  .53372 1.4767 143.4 21.8 985' 147
2020 05 28 10  13 42 25.712   -25 10 20.92  .53362 1.4765 143.4 21.8 987' 148
2020 05 28 11  13 42 25.053   -25 09 23.35  .53352 1.4762 143.3 21.8 990' 148
2020 05 28 12  13 42 24.399   -25 08 25.75  .53341 1.4760 143.3 21.8 992' 148